Regional Weather Roundup
Issued by NWS

Home | Current Version | Previous Version | Text Only | Print | Product List | Glossary Off
Versions: 1 2 3 4 5 6 7 8 9 10 11 12 13 14 15 16 17 18 19 20 21 22 23 24 25 26 27 28 29 30 31 32 33 34 35 36 37 38 39 40 41 42 43 44 45 46 47 48 49 50

000
ASUS43 KLMK 250402
RWRKY
KENTUCKY REGIONAL WEATHER ROUNDUP
NATIONAL WEATHER SERVICE LOUISVILLE KY
1100 PM EST WED DEC 24 2014

NOTE "FAIR" INDICATES FEW OR NO CLOUDS BELOW 12,000 FEET
WITH NO SIGNIFICANT WEATHER AND/OR OBSTRUCTIONS TO VISIBILITY.

KYZ001>023-026-027-061>063-070>075-250500-
WESTERN AND SOUTH CENTRAL KENTUCKY

CITY           SKY/WX    TMP DP  RH WIND       PRES   REMARKS
PADUCAH        CLOUDY    40  36  86 W12       29.89R WCI  33
HENDERSON      CLOUDY    39  34  81 W12       29.84R WCI  32
OWENSBORO      CLOUDY    40  37  89 W10       29.85R WCI  33
HOPKINSVILLE   CLOUDY    40  36  85 SW12      29.88R WCI  33
BOWLING GREEN  MOCLDY    41  34  76 SW7       29.87R
GLASGOW        NOT AVBL
$$

KYZ024-025-028>034-038-045-046-053-250500-
NORTH CENTRAL KENTUCKY

CITY           SKY/WX    TMP DP  RH WIND       PRES   REMARKS
LOUISVILLE/SDF CLOUDY    41  36  82 SW12      29.80R
LOUISVILLE/LOU CLOUDY    41  35  79 SW10      29.79S
FORT KNOX      CLOUDY    39  36  88 SW13      29.79R WCI  32
$$

KYZ035>037-039>044-047>052-055>060-089>105-250500-
NORTHEAST KENTUCKY

CITY           SKY/WX    TMP DP  RH WIND       PRES   REMARKS
LEXINGTON      CLOUDY    39  35  86 W14       29.79R WCI  31
COVINGTON      CLOUDY    40  31  70 SW12      29.73R WCI  33
FRANKFORT      CLOUDY    39  34  82 SW12      29.77R WCI  32
$$

KYZ054-064>069-076>088-106>120-250500-
SOUTHEAST KENTUCKY

CITY           SKY/WX    TMP DP  RH WIND       PRES   REMARKS
JACKSON        LGT RAIN  41  37  86 VRB7      29.79R
LONDON         LGT RAIN  41  34  76 W16G28    29.83R
SOMERSET       NOT AVBL
MIDDLESBORO    NOT AVBL
MONTICELLO     CLOUDY    42  38  86 W16G22    29.88R FOG
$$




USA.gov is the U.S. government's official web portal to all federal, state and local government web resources and services.